[[{"header":{"parameterUnit":"m.s-1","parameterCategory":1,"la1":30.2991,"la2":30.254,"lo1":-89.0895,"lo2":-89.0444,"dy":0.0017,"dx":0.0017,"nx":28,"ny":28,"refTime":"2024-11-29T03:00:00:Z","depth":0,"parameterNumber":2,"parameterNumberName":"U-component_of_WINDS"},"data":[0,0,0,0,0,0,0,0,0,0,0,0,0,0,0,0,0,0,0,0,0,0,0,0,0,0,0,0,0,0,0,0,0,0,0,0,0,0,0,0,0,0,0,0,0,0,0,0,0,0,0,0,0,0,0,0,0,0,-1.3107,-1.3107,0,-1.3146,-1.3146,-1.3147,-1.3105,-1.3104,-1.3102,-1.31,-1.3143,-1.3145,-1.3148,0,0,0,0,0,0,0,0,0,0,0,0,0,-1.2997,-1.3,-1.3107,-1.3107,-1.3108,-1.3146,-1.3146,-1.3147,-1.3106,-1.3104,-1.3102,-1.31,-1.3142,-1.3145,-1.3148,0,0,0,0,0,0,0,0,0,0,0,0,0,-1.3042,-1.3,-1.3107,-1.3092,-1.3091,-1.3146,-1.3146,-1.3147,-1.3106,-1.3103,-1.3101,-1.3099,-1.3141,-1.3145,-1.3149,-1.3221,0,0,-1.3161,-1.3162,0,0,0,0,0,0,0,0,-1.3039,-1.3046,-1.3093,-1.3093,-1.3092,-1.3118,-1.3123,-1.3172,-1.3107,-1.31,-1.31,-1.3098,-1.3137,-1.3141,-1.3153,-1.3223,-1.3225,-1.3161,-1.3163,-1.3165,-1.3166,0,0,0,0,0,0,0,-1.3036,-1.3044,-1.3122,-1.3094,-1.3093,-1.3083,-1.3087,-1.3132,-1.3132,-1.3101,-1.3098,-1.3103,-1.3136,-1.315,-1.3154,-1.3226,-1.3161,-1.3164,-1.3167,-1.3168,-1.3356,-1.3359,0,0,0,0,0,0,-1.3035,-1.3041,-1.3121,-1.3124,-1.3059,-1.3087,-1.3091,-1.3112,-1.3131,-1.3131,-1.3105,-1.3101,-1.3144,-1.315,-1.3156,-1.3242,-1.3165,-1.3169,-1.3171,-1.3354,-1.3357,-1.336,0,0,0,0,0,0,-1.3032,-1.3042,-1.312,-1.3082,-1.3091,-1.3092,-1.3116,-1.3114,-1.3128,-1.3134,-1.3134,-1.3119,-1.3143,-1.315,-1.3205,-1.3243,-1.317,-1.3174,-1.3351,-1.3355,-1.3358,-1.3416,0,0,0,0,0,0,-1.3029,-1.3041,-1.3069,-1.3083,-1.3093,-1.3168,-1.3118,-1.3117,-1.3135,-1.313,-1.3148,-1.3148,-1.3141,-1.3199,-1.3209,-1.3247,-1.3177,-1.3347,-1.3352,-1.3357,-1.3411,-1.3421,-1.3431,0,0,0,0,0,-1.3026,-1.3084,-1.3071,-1.3081,-1.3127,-1.3171,-1.3177,-1.3167,-1.3138,-1.3166,-1.3169,-1.3148,-1.3237,-1.3205,-1.3216,-1.3256,-1.3345,-1.3351,-1.3357,-1.3406,-1.3419,-1.343,0,0,0,0,0,0,-1.3076,-1.3086,-1.3071,-1.3136,-1.3152,-1.3164,-1.3199,-1.3181,-1.3207,-1.3201,-1.3188,-1.3193,-1.3251,-1.3259,-1.3223,-1.3327,-1.3286,-1.3295,-1.332,-1.3333,-1.3343,-1.3341,-1.318,0,0,0,0,0,-1.3095,-1.3129,-1.3135,-1.3192,-1.3201,-1.3198,-1.3217,-1.3207,-1.3225,-1.3232,-1.3239,-1.3258,-1.329,-1.3311,-1.3341,-1.3411,-1.3414,-1.3443,-1.3453,-1.3461,-1.3469,-1.3507,-1.352,-1.3379,-1.3379,-1.3379,0,0,-1.3134,-1.3143,-1.3166,-1.3202,-1.3214,-1.325,-1.3205,-1.3245,-1.3271,-1.3238,-1.3291,-1.3297,-1.3316,-1.3379,-1.3407,-1.3387,-1.3508,-1.3469,-1.3475,-1.3479,-1.3514,-1.3528,-1.354,-1.3383,-1.3383,-1.3382,0,0,-1.3224,-1.3234,-1.3282,-1.3294,-1.3313,-1.331,-1.3322,-1.3335,-1.3338,-1.339,-1.3366,-1.3397,-1.3452,-1.3467,-1.3482,-1.3575,-1.3557,-1.3585,-1.3638,-1.3675,-1.3686,-1.3696,-1.373,-1.3743,-1.3593,-1.3593,-1.3593,0,-1.3271,-1.3323,-1.3309,-1.3351,-1.3368,-1.3338,-1.3387,-1.34,-1.3427,-1.344,-1.3416,-1.3485,-1.3496,-1.3562,-1.3584,-1.3597,-1.361,-1.3585,-1.3685,-1.3695,-1.3704,-1.3737,-1.375,-1.3596,-1.3596,-1.3596,-1.3595,0,-1.338,-1.3417,-1.3453,-1.348,-1.3501,-1.3546,-1.3539,-1.3562,-1.355,-1.355,-1.3603,-1.3615,-1.3646,-1.3661,-1.365,-1.3725,-1.3712,-1.3687,-1.3647,-1.3721,-1.3752,-1.3764,-1.3601,-1.36,-1.3599,-1.3598,0,0,-1.3506,-1.3522,-1.3536,-1.3548,-1.3565,-1.3593,-1.3636,-1.3666,-1.3687,-1.3706,-1.3742,-1.3789,-1.3766,-1.3782,-1.3773,-1.3805,-1.3879,-1.3776,-1.3776,-1.3796,-1.3963,-1.3983,-1.3998,-1.3865,-1.3868,-1.3869,-1.3962,0,-1.3597,-1.3672,-1.366,-1.3733,-1.3767,-1.3738,-1.3776,-1.379,-1.3791,-1.382,-1.3821,-1.3855,-1.3821,-1.3831,-1.3861,-1.3864,-1.3913,-1.3856,-1.3901,-1.3902,-1.3899,-1.4014,-1.4035,-1.4122,-1.3974,-1.3976,-1.3977,0,-1.3714,-1.3737,-1.3813,-1.3824,-1.3838,-1.3872,-1.3899,-1.3926,-1.3942,-1.394,-1.3958,-1.3942,-1.3986,-1.3942,-1.4002,-1.3964,-1.3981,-1.3985,-1.3988,-1.3994,-1.3946,-1.4024,-1.415,-1.4163,-1.3996,-1.3994,-1.3993,0,-1.38,-1.3849,-1.3901,-1.3912,-1.3926,-1.3951,-1.3958,-1.3971,-1.3989,-1.4012,-1.4024,-1.4051,-1.4067,-1.4089,-1.4081,-1.405,-1.4143,-1.4099,-1.4143,-1.4144,-1.4166,-1.4166,-1.4298,-1.4174,-1.4174,-1.4174,-1.4173,0,-1.3904,-1.3953,-1.394,-1.3972,-1.4025,-1.401,-1.4063,-1.4066,-1.4078,-1.4111,-1.4087,-1.4118,-1.4104,-1.4135,-1.4128,-1.4179,-1.4186,-1.4186,-1.4185,-1.419,-1.419,-1.4203,-1.4197,-1.4177,-1.4176,-1.4176,-1.4175,0,-1.401,-1.4004,-1.4059,-1.4066,-1.407,-1.4108,-1.4115,-1.4146,-1.4143,-1.4185,-1.4194,-1.4191,-1.4225,-1.4218,-1.4256,-1.4251,-1.4316,-1.4306,-1.4311,-1.4309,-1.4355,-1.4351,-1.4502,-1.4521,-1.4383,-1.4384,-1.4385,0,-1.4079,-1.4115,-1.4126,-1.4146,-1.4155,-1.4187,-1.4205,-1.4191,-1.4211,-1.4231,-1.4259,-1.4291,-1.4316,-1.4372,-1.4373,-1.4402,-1.4393,-1.4444,-1.4398,-1.4402,-1.4396,-1.4395,-1.4399,-1.4454,-1.4456,-1.4457,-1.4458,0,-1.4201,-1.4195,-1.4223,-1.4249,-1.4271,-1.4291,-1.4309,-1.4326,-1.4314,-1.4337,-1.4372,-1.4391,-1.4429,-1.4461,-1.4487,-1.4494,-1.4475,-1.4472,-1.4484,-1.4491,-1.4493,-1.4494,-1.4338,-1.4469,-1.4468,-1.4467,-1.4467,-1.4466,-1.4291,-1.4322,-1.4335,-1.4366,-1.4377,-1.4394,-1.4423,-1.4423,-1.4451,-1.4481,-1.447,-1.451,-1.4524,-1.4557,-1.4567,-1.4597,-1.4579,-1.4596,-1.4601,-1.4606,-1.4612,-1.4486,-1.4602,-1.4602,-1.4601,-1.4601,-1.4601,0,-1.4413,-1.442,-1.4448,-1.4473,-1.4498,-1.4475,-1.4493,-1.4515,-1.455,-1.4564,-1.4588,-1.4627,-1.4658,-1.4661,-1.469,-1.4714,-1.4705,-1.4722,-1.4721,-1.4723,-1.4627,-1.4614,-1.4728,-1.4728,-1.4728,-1.4728,-1.4728,-1.4728,-1.448,-1.4531,-1.4527,-1.4583,-1.4589,-1.4627,-1.4639,-1.4655,-1.4666,-1.4711,-1.4736,-1.4737,-1.4746,-1.4775,-1.4802,-1.4802,-1.4815,-1.4835,-1.4832,-1.4742,-1.473,-1.4718,-1.4706,-1.4838,-1.4838,-1.4926,-1.4927,-1.4928]},{"header":{"parameterUnit":"m.s-1","parameterCategory":1,"la1":30.2991,"la2":30.254,"lo1":-89.0895,"lo2":-89.0444,"dy":0.0017,"dx":0.0017,"nx":28,"ny":28,"refTime":"2024-11-29T03:00:00:Z","depth":0,"parameterNumber":3,"parameterNumberName":"V-component_of_WINDS"},"data":[0,0,0,0,0,0,0,0,0,0,0,0,0,0,0,0,0,0,0,0,0,0,0,0,0,0,0,0,0,0,0,0,0,0,0,0,0,0,0,0,0,0,0,0,0,0,0,0,0,0,0,0,0,0,0,0,0,0,-8.1768,-8.177,0,-8.1925,-8.1927,-8.1929,-8.1844,-8.184,-8.1836,-8.1832,-8.1986,-8.1994,-8.2002,0,0,0,0,0,0,0,0,0,0,0,0,0,-8.1388,-8.1395,-8.1768,-8.177,-8.1772,-8.1925,-8.1927,-8.1929,-8.1845,-8.184,-8.1834,-8.183,-8.1983,-8.1993,-8.2003,0,0,0,0,0,0,0,0,0,0,0,0,0,-8.155,-8.1398,-8.1768,-8.1748,-8.1748,-8.1925,-8.1927,-8.193,-8.1846,-8.1839,-8.1833,-8.1827,-8.198,-8.1992,-8.2004,-8.2206,0,0,-8.2041,-8.2046,0,0,0,0,0,0,0,0,-8.1541,-8.1564,-8.1749,-8.175,-8.175,-8.1859,-8.185,-8.2022,-8.1847,-8.1809,-8.1831,-8.1824,-8.1948,-8.1963,-8.2006,-8.2213,-8.222,-8.2042,-8.2049,-8.2054,-8.2058,0,0,0,0,0,0,0,-8.153,-8.1556,-8.183,-8.1752,-8.1753,-8.173,-8.1746,-8.1882,-8.1912,-8.1811,-8.1806,-8.1826,-8.1947,-8.1994,-8.2009,-8.2222,-8.2042,-8.2052,-8.206,-8.2065,-8.2603,-8.261,0,0,0,0,0,0,-8.152,-8.1548,-8.1825,-8.1835,-8.1628,-8.1742,-8.176,-8.183,-8.191,-8.1917,-8.1831,-8.1821,-8.1977,-8.1995,-8.2014,-8.2257,-8.2054,-8.2066,-8.2073,-8.2596,-8.2604,-8.2612,0,0,0,0,0,0,-8.1513,-8.1546,-8.1819,-8.169,-8.1723,-8.1755,-8.1835,-8.1837,-8.1884,-8.1925,-8.193,-8.1874,-8.1973,-8.1997,-8.2159,-8.2261,-8.2071,-8.2082,-8.2588,-8.2598,-8.2608,-8.2743,0,0,0,0,0,0,-8.1502,-8.1544,-8.1623,-8.1692,-8.173,-8.1964,-8.1841,-8.1844,-8.1906,-8.1894,-8.1967,-8.1973,-8.1969,-8.2142,-8.2171,-8.2274,-8.2092,-8.2579,-8.2592,-8.2605,-8.273,-8.2757,-8.278,0,0,0,0,0,-8.1489,-8.1653,-8.1627,-8.1661,-8.183,-8.197,-8.1991,-8.1986,-8.1914,-8.1993,-8.2019,-8.197,-8.2245,-8.2159,-8.2192,-8.2299,-8.2572,-8.2589,-8.2604,-8.2718,-8.2752,-8.278,0,0,0,0,0,0,-8.1592,-8.1662,-8.1634,-8.1826,-8.1893,-8.1955,-8.2054,-8.2021,-8.2108,-8.2094,-8.2081,-8.2098,-8.2268,-8.2299,-8.2203,-8.2499,-8.2397,-8.242,-8.2473,-8.2505,-8.2529,-8.2518,-8.2102,0,0,0,0,0,-8.1637,-8.1748,-8.1801,-8.1965,-8.2001,-8.2022,-8.2083,-8.2073,-8.2141,-8.2169,-8.2207,-8.2273,-8.2374,-8.2441,-8.2536,-8.2733,-8.2747,-8.2823,-8.2848,-8.2869,-8.2889,-8.2996,-8.303,-8.2664,-8.2664,-8.2664,0,0,-8.1731,-8.1783,-8.1853,-8.1987,-8.2038,-8.2151,-8.2046,-8.217,-8.2253,-8.2186,-8.2343,-8.2374,-8.2446,-8.2628,-8.2709,-8.2659,-8.2993,-8.2889,-8.2905,-8.2914,-8.3016,-8.305,-8.3081,-8.2675,-8.2673,-8.2671,0,0,-8.1961,-8.2012,-8.2154,-8.2208,-8.2287,-8.23,-8.2334,-8.2403,-8.2421,-8.2578,-8.2531,-8.2628,-8.2802,-8.2856,-8.2906,-8.3157,-8.3115,-8.3187,-8.332,-8.3424,-8.3453,-8.3478,-8.3568,-8.36,-8.3207,-8.3208,-8.3208,0,-8.2068,-8.2238,-8.2231,-8.2359,-8.2419,-8.2366,-8.2509,-8.2561,-8.2666,-8.2708,-8.2651,-8.2869,-8.2914,-8.3107,-8.3168,-8.321,-8.3248,-8.318,-8.3449,-8.3475,-8.3498,-8.3584,-8.3617,-8.3216,-8.3215,-8.3214,-8.3213,0,-8.2365,-8.2484,-8.2589,-8.2695,-8.2767,-8.2902,-8.2913,-8.2986,-8.297,-8.2988,-8.3148,-8.3201,-8.3306,-8.335,-8.3335,-8.3542,-8.3508,-8.3451,-8.3348,-8.3542,-8.3622,-8.3654,-8.3228,-8.3225,-8.3223,-8.322,0,0,-8.2665,-8.2766,-8.2805,-8.2852,-8.2936,-8.3026,-8.3158,-8.3263,-8.3326,-8.3399,-8.3509,-8.3657,-8.3605,-8.3662,-8.3652,-8.3743,-8.3938,-8.3674,-8.3675,-8.3722,-8.4169,-8.4213,-8.4251,-8.3911,-8.3917,-8.3922,-8.4163,0,-8.2901,-8.3135,-8.3132,-8.3347,-8.3456,-8.3407,-8.3521,-8.3584,-8.3605,-8.3698,-8.3719,-8.3826,-8.3748,-8.3782,-8.387,-8.3896,-8.4028,-8.3878,-8.4011,-8.4016,-8.3996,-8.4293,-8.4339,-8.4565,-8.4194,-8.42,-8.4203,0,-8.3208,-8.3295,-8.3522,-8.359,-8.3635,-8.3739,-8.3835,-8.3926,-8.3994,-8.4003,-8.4067,-8.4043,-8.4174,-8.4067,-8.4248,-8.4146,-8.42,-8.422,-8.4229,-8.4242,-8.4122,-8.4314,-8.4636,-8.4671,-8.4252,-8.4248,-8.4245,0,-8.3405,-8.3578,-8.3737,-8.3779,-8.3861,-8.3935,-8.3973,-8.4036,-8.4099,-8.4182,-8.4222,-8.4318,-8.4371,-8.4445,-8.4446,-8.4368,-8.4629,-8.4522,-8.4639,-8.4639,-8.4697,-8.4693,-8.5033,-8.473,-8.4729,-8.4729,-8.4728,0,-8.3669,-8.381,-8.3827,-8.3924,-8.408,-8.4074,-8.4228,-8.4258,-8.4314,-8.4415,-8.4377,-8.4472,-8.4468,-8.4563,-8.4565,-8.4714,-8.4738,-8.4747,-8.4746,-8.4751,-8.475,-8.4787,-8.4772,-8.4738,-8.4736,-8.4734,-8.4733,0,-8.3916,-8.3933,-8.4103,-8.4168,-8.4187,-8.4299,-8.4354,-8.4445,-8.4462,-8.4591,-8.462,-8.4646,-8.4757,-8.4766,-8.4893,-8.4893,-8.5075,-8.5056,-8.5053,-8.505,-8.5166,-8.5156,-8.5543,-8.5593,-8.5256,-8.5259,-8.5262,0,-8.4084,-8.4192,-8.4269,-8.4336,-8.4378,-8.4485,-8.455,-8.4547,-8.4616,-8.4703,-8.4784,-8.4892,-8.4978,-8.5157,-8.5186,-8.5283,-8.5266,-8.5395,-8.528,-8.5283,-8.5269,-8.5263,-8.5274,-8.5418,-8.5421,-8.5424,-8.5427,0,-8.4382,-8.4385,-8.4481,-8.4582,-8.4661,-8.4739,-8.4811,-8.4867,-8.4873,-8.4952,-8.5066,-8.5133,-8.5264,-8.5371,-8.5466,-8.5501,-8.5466,-8.5463,-8.5495,-8.5502,-8.5496,-8.5502,-8.5115,-8.5454,-8.5451,-8.5449,-8.5448,-8.5447,-8.4595,-8.4689,-8.4758,-8.4867,-8.4922,-8.4991,-8.5081,-8.5109,-8.5206,-8.5314,-8.5306,-8.5432,-8.5497,-8.5621,-8.5664,-8.5761,-8.5718,-8.5764,-8.5776,-8.5788,-8.5801,-8.548,-8.5778,-8.5778,-8.5777,-8.5776,-8.5776,0,-8.4891,-8.4933,-8.5033,-8.5138,-8.5223,-8.5183,-8.5261,-8.5335,-8.5448,-8.5512,-8.5598,-8.5729,-8.5833,-8.587,-8.597,-8.6041,-8.6027,-8.6067,-8.6063,-8.6071,-8.5834,-8.5796,-8.6077,-8.6077,-8.6077,-8.6077,-8.6077,-8.6077,-8.5055,-8.5212,-8.5223,-8.5406,-8.5446,-8.5572,-8.562,-8.5683,-8.5735,-8.5884,-8.5971,-8.5995,-8.6048,-8.6152,-8.6245,-8.6253,-8.6291,-8.634,-8.6341,-8.6118,-8.6088,-8.6059,-8.6024,-8.6348,-8.6348,-8.657,-8.6572,-8.6574]}]]